Location: Lalanga
(4.5882°N, 32.9072°E)
Time: 01:09:47
(UTC+00:00)

IRS-1A Rocket - Pass Details

Date: 24 January 2020
Orbit: 851 x 931 km, 99.2° (Epoch: 19 February)

Event Time Altitude Azimuth Distance (km) Brightness Sun altitude
Rises 17:44:58 0° 171° (S) 3,575 7.6 -26.2°
Reaches altitude 10° 17:47:25 10° 173° (S) 2,626 6.9 -26.7°
Maximum altitude 17:53:16 74° 256° (WSW) 956 4.5 -28.1°
Drops below altitude 10° 17:59:02 10° 341° (NNW) 2,581 6.7 -29.5°
Sets 18:01:25 0° 343° (NNW) 3,510 7.4 -30.0°
